Temp
20 20 21 21 21 21 21 21 21 21 21 21 20 20 20 20 21 21 21 21 22 21 22 22 22 22 22 22 23 23 23 23 23 23 22 22 22 22 23 23 23 23 23 23 23 24 24 24 24 23 24 24 22 22 21 19 19 22 25 25 24 24 24 24 25 24 24 25 24 23 21 23 25 23 22 21 22 22 23 23 20 18 17 16 14 12 12 13
19 19 20 20 20 20 21 21 21 21 21 20 20 20 20 20 20 21 21 21 21 21 21 21 22 22 22 22 22 23 23 23 23 23 22 21 22 22 23 23 23 23 23 23 23 24 25 25 23 23 24 24 22 22 22 20 21 23 25 25 24 25 24 23 24 24 24 24 23 22 20 21 24 23 22 23 24 23 24 24 21 20 18 16 15 13 13 13
19 19 19 19 19 19 20 21 21 21 20 20 20 20 20 20 20 20 21 21 21 21 21 21 21 22 22 22 22 23 22 22 24 23 22 21 22 22 23 23 23 23 23 23 23 23 24 24 23 23 24 24 22 22 23 22 22 22 23 26 25 24 23 22 23 23 23 23 23 23 20 21 23 22 22 23 24 23 24 24 23 23 20 17 16 14 13 13
17 17 18 18 19 19 19 20 21 20 20 20 20 20 19 19 20 20 20 20 20 20 21 21 21 22 22 22 22 22 22 23 24 23 22 22 22 23 23 23 23 23 23 23 23 23 23 23 23 23 24 25 22 22 23 22 21 22 23 26 24 22 23 22 22 22 21 21 22 22 20 22 22 20 21 23 24 25 24 21 20 21 19 16 15 14 13 13
15 15 15 16 17 18 18 19 20 20 20 20 20 19 19 19 19 19 19 20 20 20 21 21 22 22 22 22 22 22 22 24 24 23 22 22 23 23 23 23 23 23 23 23 23 23 23 24 24 23 24 25 23 23 23 20 20 23 23 23 22 21 23 23 20 20 19 19 20 21 21 22 21 20 22 22 24 24 21 17 16 16 15 13 13 13 13 13
12 13 13 14 16 17 18 19 20 20 20 20 20 19 19 19 19 19 19 19 20 20 21 21 21 22 22 22 22 22 23 24 23 23 23 23 23 23 23 23 23 23 22 23 23 23 23 23 24 24 24 24 23 24 23 19 20 24 23 20 20 20 22 22 20 19 18 20 21 21 22 21 21 22 22 21 22 18 14 14 13 13 12 12 12 12 13 12
11 12 13 13 16 18 18 19 20 20 20 20 19 19 19 19 18 18 19 19 20 20 21 21 21 22 22 22 22 22 23 24 23 22 23 23 23 23 23 23 23 23 22 23 23 23 23 23 24 23 24 24 22 22 21 20 20 23 24 21 20 19 20 21 19 18 18 20 21 20 20 20 22 22 20 20 17 13 12 12 12 12 11 12 12 12 12 12
10 11 13 13 15 17 18 19 19 19 19 19 19 19 19 18 18 18 18 19 19 20 20 21 21 21 22 22 22 23 23 23 22 22 22 22 23 23 23 22 22 22 22 23 23 23 23 23 23 22 24 23 22 22 20 20 22 23 23 21 19 18 20 20 18 18 18 19 19 18 19 21 22 20 20 19 15 12 12 12 12 12 12 12 12 12 12 11
11 12 12 13 14 16 17 17 18 18 19 18 18 18 18 18 18 18 18 19 19 20 20 20 21 21 22 22 22 24 23 22 21 22 22 22 22 22 22 22 22 22 22 22 22 23 23 23 22 22 24 22 21 22 20 22 23 22 21 21 20 20 20 19 19 19 18 18 18 18 21 21 19 18 20 17 13 12 12 12 12 12 13 12 11 11 11 11
11 11 12 12 13 14 15 16 17 17 17 18 18 18 18 18 18 18 18 19 19 19 20 20 21 21 22 22 22 24 22 21 21 21 21 22 22 22 22 22 22 22 22 21 21 23 23 23 22 21 23 22 21 20 19 22 22 20 20 20 20 21 20 19 20 19 18 18 18 20 22 21 17 19 21 16 12 12 12 12 12 12 12 11 11 11 11 10
10 11 11 12 13 13 13 15 15 15 15 16 17 18 17 17 17 17 18 18 19 19 20 20 20 21 21 22 23 24 21 20 21 21 21 21 21 21 22 22 22 22 22 21 21 22 22 22 21 21 22 22 21 20 19 20 19 19 20 21 21 21 21 20 20 19 19 19 18 20 22 19 17 20 21 15 12 13 13 13 12 12 12 10 10 10 10 10
9 10 10 12 13 13 12 13 13 13 13 14 16 18 17 17 17 17 18 18 18 19 19 20 20 20 21 21 23 22 20 20 20 21 21 21 21 21 21 22 22 21 22 22 21 21 22 21 21 22 22 22 22 21 20 18 18 19 19 22 23 23 23 21 19 18 19 20 18 19 22 20 20 20 17 14 12 13 14 14 12 11 11 10 10 10 10 10
9 9 10 11 12 13 12 12 12 11 12 13 15 16 16 17 17 17 18 18 18 19 19 19 20 20 21 22 21 20 20 20 20 20 20 20 20 21 21 21 21 21 21 22 21 21 21 21 22 22 20 22 22 20 19 18 18 19 20 21 22 23 23 21 19 18 20 19 17 19 22 23 23 19 15 14 13 14 15 15 13 12 11 10 10 10 10 9
9 9 9 10 11 12 13 12 11 11 11 11 13 15 16 16 17 17 18 18 18 19 19 19 19 20 21 22 20 19 19 19 19 19 20 20 20 20 20 20 21 21 21 21 21 21 21 21 21 21 19 20 20 19 20 20 19 21 20 20 21 22 23 21 19 19 21 19 17 20 22 23 23 18 15 14 13 14 17 16 13 12 11 10 10 10 10 9
9 9 9 9 10 11 12 12 11 11 11 11 13 15 15 16 17 17 17 18 18 18 19 19 19 20 21 21 19 18 18 18 18 19 19 20 20 20 19 19 20 20 21 20 20 20 20 21 21 21 19 18 19 20 21 21 21 21 21 21 21 21 22 22 19 18 21 20 19 21 22 23 23 19 15 13 13 14 16 17 14 12 11 11 11 10 10 9
9 9 9 9 9 10 11 12 12 10 10 11 13 15 15 16 16 17 17 17 18 18 18 19 19 19 21 21 18 18 18 18 18 18 19 19 20 20 19 19 19 19 20 19 20 19 20 21 19 18 19 19 20 22 22 21 21 21 21 21 21 20 21 22 19 17 18 20 20 21 22 23 23 19 14 13 14 14 16 17 13 12 11 11 11 10 10 10
9 9 9 9 9 10 10 11 11 10 11 12 13 15 15 16 16 16 17 17 17 18 18 18 18 19 21 19 18 19 18 17 17 17 18 18 19 19 19 19 18 19 19 19 19 20 20 19 17 17 20 20 21 22 21 20 21 21 20 20 21 21 21 21 21 18 17 19 21 21 22 23 22 19 15 13 13 14 16 17 13 12 11 11 10 10 10 10
9 9 9 9 10 10 10 10 10 10 11 12 13 14 15 15 16 16 16 17 17 17 18 18 18 20 21 19 18 19 17 16 17 17 17 18 18 19 19 19 18 19 20 20 20 20 20 19 18 20 20 19 20 21 21 21 22 21 20 20 21 20 20 21 21 20 18 20 21 21 21 23 22 19 16 14 13 14 17 16 13 12 11 11 10 10 10 9
9 9 9 9 9 10 10 10 10 10 11 12 13 14 15 15 15 15 15 16 18 19 20 19 19 21 20 18 17 16 15 16 16 16 17 17 18 18 19 19 19 20 20 20 20 19 19 19 19 20 20 20 21 21 22 22 22 22 21 21 21 21 21 20 21 19 18 20 21 22 22 23 23 21 18 15 13 14 16 14 12 11 11 11 10 10 9 9
9 9 10 10 9 10 9 10 10 11 11 12 13 13 15 16 17 17 15 15 18 20 20 19 20 20 19 18 16 15 16 16 16 17 16 17 18 19 19 19 19 19 20 20 20 18 18 20 20 20 21 21 21 22 22 21 20 20 20 20 20 21 21 20 19 17 17 19 22 22 22 22 23 22 19 15 14 14 15 13 12 12 11 11 10 10 9 9
9 9 10 10 9 9 10 10 10 11 11 11 12 14 17 18 19 19 17 17 18 17 18 18 18 19 19 17 15 16 17 17 16 16 16 17 18 19 19 18 19 20 18 18 18 17 17 19 21 21 22 21 21 22 20 19 19 20 20 20 20 20 21 20 19 17 16 19 21 20 20 21 21 22 19 15 14 15 15 15 13 12 12 11 10 9 9 8
9 9 10 10 9 10 10 10 11 11 11 11 11 13 15 16 17 18 17 19 18 16 16 16 16 17 17 16 16 17 18 19 17 16 16 17 18 19 19 18 20 20 17 17 18 18 18 20 21 21 19 19 19 19 19 19 19 19 19 19 20 20 20 20 18 16 16 18 20 19 18 20 21 22 19 15 15 15 13 13 13 12 12 10 10 9 9 8
9 10 10 10 10 10 10 10 11 11 11 11 11 12 14 16 16 16 17 19 18 16 15 15 16 17 16 16 16 16 19 20 19 17 16 17 18 18 19 19 19 18 17 18 20 19 19 20 20 19 18 18 18 17 18 18 18 19 19 19 20 19 19 20 18 16 16 16 18 17 17 20 21 21 19 14 13 11 9 9 10 10 11 10 10 9 9 8
9 10 10 10 10 10 10 10 11 11 11 11 11 13 15 16 16 16 17 18 18 16 16 15 16 17 17 17 17 18 19 19 19 18 16 17 18 17 19 19 18 18 18 19 20 20 21 18 16 17 18 19 18 17 17 18 19 19 18 19 20 19 19 20 19 16 17 16 15 17 18 20 21 21 19 13 10 10 9 9 9 9 9 9 8 8 8 8
10 10 10 10 11 11 11 11 11 11 11 11 12 14 15 15 16 16 17 18 18 16 16 16 15 17 17 17 17 18 19 18 18 17 16 17 18 17 18 18 18 19 19 19 18 20 20 17 15 17 17 18 18 17 18 19 20 19 18 19 20 20 20 19 18 17 18 18 16 16 19 21 21 21 19 14 11 11 10 9 10 9 8 8 8 8 7 7
10 10 10 11 11 11 11 11 11 11 11 11 13 15 15 15 16 16 18 18 17 17 17 16 17 18 18 16 16 18 18 18 15 14 15 16 17 18 18 17 17 18 18 18 17 18 18 16 16 17 17 17 18 18 18 18 19 19 18 18 18 19 19 18 17 17 19 19 16 15 18 20 21 22 20 14 13 13 11 10 10 10 9 8 9 9 8 7
10 10 11 11 11 11 11 11 11 11 12 12 14 15 15 15 15 16 18 18 17 18 17 16 16 18 17 15 16 19 19 17 14 13 14 15 16 17 18 18 16 16 16 17 18 17 16 15 15 17 17 17 17 18 17 17 19 19 16 15 17 18 17 17 17 18 18 18 16 15 17 18 19 21 19 14 14 15 13 12 11 10 10 9 9 9 8 8
11 10 11 11 11 11 11 12 11 11 12 14 14 15 15 15 15 17 18 18 18 19 17 15 15 16 15 14 15 17 16 15 16 15 13 14 16 17 18 18 18 17 15 17 19 17 15 16 16 16 17 17 18 18 17 17 19 17 13 13 15 16 16 17 17 18 17 17 17 16 16 17 19 20 18 15 16 18 18 15 12 11 10 10 10 9 8 8
11 11 11 11 11 11 11 12 12 12 13 14 14 15 15 15 16 18 17 17 19 18 17 16 15 15 14 14 15 15 13 14 16 14 12 14 16 16 16 16 17 17 15 16 19 16 14 14 14 16 17 17 17 15 15 17 18 14 12 13 14 14 15 16 16 17 16 15 17 18 17 17 19 20 20 17 18 20 20 17 13 12 11 10 10 9 8 8
11 12 12 11 11 11 11 11 12 13 13 13 14 14 15 15 17 18 15 17 21 18 15 16 15 14 15 15 15 14 14 14 13 13 14 15 15 15 15 15 16 17 15 15 16 15 13 11 12 15 16 16 14 11 11 14 14 13 14 16 16 15 15 16 16 17 16 16 17 18 18 18 18 20 21 20 19 19 19 17 13 12 11 10 10 9 8 8
11 12 12 11 11 11 11 11 12 13 12 13 13 14 15 16 16 17 16 18 21 17 14 15 14 14 15 16 16 14 14 13 13 14 15 15 15 15 15 15 16 16 15 16 15 14 13 13 13 13 12 13 13 12 10 10 11 13 17 17 17 17 16 16 16 16 16 17 17 15 16 17 18 19 21 21 19 17 17 17 14 12 11 10 9 9 8 8
12 12 12 11 11 11 11 12 13 13 12 12 13 14 16 15 15 16 17 19 20 17 16 16 14 14 15 16 16 14 14 14 13 15 15 15 15 15 16 17 17 16 16 16 16 15 15 15 15 13 11 12 15 15 12 11 12 14 17 17 17 18 17 17 17 16 17 17 15 13 14 16 17 20 21 21 18 15 14 14 13 13 12 10 9 9 8 7
12 12 12 11 11 12 12 13 13 13 12 12 13 14 16 15 15 17 18 20 19 17 16 16 14 14 15 16 15 14 14 14 14 14 14 14 15 15 16 16 16 17 17 17 16 16 16 15 14 14 13 13 16 17 15 14 14 15 17 18 18 18 16 17 17 16 17 16 13 13 15 16 18 20 20 19 15 11 10 9 9 11 11 10 9 9 8 7
12 12 11 11 11 12 12 13 14 13 12 12 13 14 14 14 16 18 18 19 18 15 15 15 13 14 15 15 14 14 15 14 14 14 13 14 15 15 15 15 15 16 16 16 16 16 17 17 15 15 15 14 16 18 17 16 15 16 17 18 18 18 18 18 18 18 18 16 13 13 15 18 19 18 16 13 10 8 8 8 7 8 10 10 9 8 8 7
12 11 11 11 11 11 12 12 14 13 12 11 12 13 14 15 17 17 18 19 17 14 14 14 14 14 15 14 13 14 15 15 13 13 14 14 15 15 16 15 15 15 16 17 17 16 17 18 16 14 13 14 15 16 17 17 16 15 15 16 17 18 19 17 16 16 16 16 15 14 16 19 19 16 11 9 9 8 8 8 7 8 8 9 9 8 8 8
12 11 11 11 11 11 11 12 13 13 12 11 12 13 14 16 17 17 18 19 17 15 14 14 15 15 15 14 13 13 14 14 13 13 14 14 14 15 15 16 15 15 17 18 17 16 16 17 14 12 13 13 14 15 15 16 17 15 14 16 16 16 18 16 14 12 13 16 17 16 17 18 18 17 13 10 11 10 8 8 9 8 8 8 9 9 8 8
11 11 11 11 11 11 11 12 13 12 11 11 12 13 15 16 17 17 18 18 17 16 16 17 17 16 16 15 15 13 14 14 13 14 14 13 15 15 14 15 16 15 17 18 18 17 18 17 13 12 14 12 10 13 14 14 15 15 15 16 15 15 16 17 17 15 14 17 17 16 17 18 19 19 15 13 14 13 11 9 9 8 8 8 9 9 9 8
11 11 11 11 11 11 12 12 12 11 11 11 12 14 15 16 17 17 17 17 17 17 18 18 18 17 17 17 16 14 14 15 14 14 15 14 16 16 14 15 16 15 17 17 17 17 18 18 14 11 13 12 9 13 15 14 13 14 15 16 16 16 17 17 17 17 16 17 17 17 17 18 19 19 18 17 17 17 14 10 9 9 8 8 9 9 9 9
11 11 12 12 11 11 12 11 11 11 11 12 12 14 15 16 16 17 17 17 17 18 18 19 18 18 17 17 17 14 14 15 14 14 16 15 16 16 15 16 16 15 16 16 16 17 17 18 17 11 11 12 12 13 15 14 13 12 14 15 15 16 17 17 17 17 18 18 18 17 16 18 19 20 20 19 19 19 17 13 11 11 10 9 10 9 9 9
11 12 13 13 12 11 11 11 11 11 12 13 13 14 15 16 16 16 17 18 18 18 18 19 18 17 17 16 17 16 14 15 14 15 16 16 16 16 15 17 17 14 15 16 16 16 16 17 17 13 10 12 14 14 16 16 14 13 15 15 15 15 16 16 16 17 17 18 18 18 17 19 19 18 20 21 20 19 18 16 14 12 11 10 9 9 9 9
12 12 13 13 12 11 10 10 11 12 12 13 14 14 15 15 15 15 16 17 18 17 17 18 19 18 17 16 16 16 14 14 14 15 16 16 17 17 16 17 17 14 14 14 15 16 16 16 16 13 11 13 15 14 13 15 15 15 16 16 16 16 15 16 16 15 15 17 18 17 18 19 17 14 16 18 18 17 17 17 16 13 11 10 9 9 9 9
12 13 13 12 11 11 10 11 12 12 12 13 14 14 14 15 15 15 15 16 17 17 15 16 18 18 17 16 16 16 15 14 14 14 16 16 17 19 17 16 16 15 14 14 15 16 16 16 16 14 13 14 13 11 9 11 13 14 15 16 17 17 16 17 18 15 14 15 16 16 16 18 14 10 11 13 12 12 12 13 14 12 11 9 8 8 8 9
12 13 12 11 11 11 11 12 12 12 12 13 14 15 15 15 15 15 15 15 16 16 15 16 17 17 17 17 16 16 16 16 14 14 16 16 17 18 16 15 15 15 16 16 15 15 15 16 16 15 14 14 13 11 10 10 12 14 14 14 16 17 17 17 17 16 16 16 16 15 16 17 14 10 9 9 8 8 8 9 11 11 10 9 8 8 8 8
12 12 11 10 11 12 12 12 12 11 12 13 13 14 14 15 15 15 15 15 15 16 15 16 17 17 17 17 17 17 17 17 16 15 16 16 15 15 15 15 15 15 16 16 16 15 15 16 16 15 15 14 14 13 12 11 12 14 15 14 15 16 16 15 14 15 16 17 17 17 17 17 15 10 8 8 8 9 9 8 8 9 9 8 8 7 7 7
12 12 11 11 11 12 13 13 12 11 11 12 13 13 14 14 14 15 15 15 15 16 16 16 16 17 17 16 17 17 17 18 18 16 15 15 14 12 12 14 15 16 16 16 16 15 15 16 16 15 15 15 15 15 15 14 12 13 14 14 14 15 15 15 15 15 15 16 16 17 18 17 14 11 10 10 9 10 11 8 7 7 8 8 7 7 7 7
12 11 11 11 11 11 12 13 13 11 11 11 12 13 13 13 14 15 15 15 15 15 16 16 15 16 16 16 16 16 16 17 17 16 15 15 13 11 10 12 14 15 14 14 15 15 15 15 16 16 16 17 17 17 16 16 14 13 13 13 14 14 14 15 16 16 15 15 15 17 18 16 13 12 13 11 10 12 12 10 8 7 7 6 6 6 6 6
11 11 11 11 11 11 12 12 12 12 12 12 12 13 13 13 14 14 13 15 15 15 15 15 15 16 16 16 16 16 16 16 15 15 15 14 12 10 9 10 12 12 12 13 13 14 15 15 16 16 17 17 17 16 16 16 16 15 14 13 13 14 14 14 15 16 16 15 15 17 17 17 16 14 14 13 12 12 12 11 10 8 7 6 6 6 6 6
10 11 11 11 11 11 12 12 12 12 12 12 12 13 14 13 14 14 13 14 15 14 14 14 14 15 16 16 16 15 15 15 14 14 14 13 12 10 10 10 10 10 11 11 12 13 15 15 15 15 16 16 15 14 14 16 17 16 15 14 14 13 13 13 14 15 16 16 17 17 16 17 17 15 14 14 13 14 13 12 11 9 8 7 6 6 6 6
10 10 10 9 9 10 10 11 12 12 12 12 12 13 14 13 14 14 14 13 13 13 14 14 14 14 15 16 16 15 14 14 14 14 14 13 12 11 11 11 11 10 11 11 11 12 14 15 14 14 14 15 14 13 13 14 15 15 15 15 15 13 13 13 14 15 15 16 17 16 14 15 16 16 16 14 13 13 12 10 9 9 8 7 6 6 6 6
9 9 9 9 9 9 9 10 11 12 12 12 12 13 13 13 14 14 14 13 13 13 13 14 14 15 15 15 15 15 15 16 16 15 14 13 12 12 12 13 11 9 10 11 11 11 13 14 13 13 13 13 13 12 12 13 14 14 14 14 14 13 12 12 13 14 14 14 15 14 13 14 15 15 15 12 10 10 10 9 9 9 8 7 7 7 7 6
6 7 8 9 9 8 8 9 10 11 12 12 12 12 13 13 13 14 14 14 14 14 13 13 15 15 14 14 14 15 15 16 17 16 14 14 14 13 13 13 11 10 10 11 11 11 12 12 11 12 13 13 12 12 12 11 12 12 12 13 13 13 12 12 12 13 13 13 14 13 13 14 14 14 12 9 9 10 10 10 9 8 7 7 7 7 7 7
6 6 8 9 9 8 8 8 9 10 11 11 12 13 13 13 13 14 13 13 13 13 13 13 14 14 13 13 13 14 15 15 15 14 13 14 14 13 13 12 12 11 11 10 11 11 11 11 11 11 13 12 11 10 11 10 10 11 12 13 13 12 12 12 12 13 13 13 14 13 14 15 14 12 12 10 9 11 11 10 10 9 8 7 8 8 8 7
Height
826 826 826 827 827 827 827 827 828 828 829 829 829 829 830 830 830 830 830 830 831 831 831 831 830 830 830 829 829 828 827 827 826 826 825 825 825 826 826 826 827 827 827 827 828 828 827 828 827 827 827 828 831 832 833 835 835 834 836 840 842 845 846 843 844 845 843 844 846 846 847 846 844 844 844 844 844 844 843 843 846 847 849 850 851 852 850 849
826 826 826 827 827 827 827 828 828 828 829 829 829 830 830 830 830 830 830 831 831 831 831 830 830 830 829 829 828 827 827 826 825 825 825 826 825 826 826 827 827 827 827 828 828 828 827 828 828 828 828 830 833 833 833 835 835 836 839 840 842 843 843 842 841 843 843 844 845 847 850 848 845 844 844 844 843 844 843 842 844 847 849 851 851 852 851 850
826 826 827 827 827 827 827 828 828 828 829 829 829 830 830 830 830 830 830 831 830 831 830 830 830 829 829 829 828 827 826 825 826 826 826 826 826 826 827 827 827 827 828 828 828 828 828 828 828 828 829 831 835 834 834 836 836 839 840 839 841 842 843 844 843 843 844 845 846 846 850 848 844 844 844 843 843 843 843 842 843 844 846 849 851 852 852 851
826 826 826 827 827 827 827 828 828 829 829 829 829 830 830 830 830 830 830 830 830 830 830 830 829 829 829 828 828 827 825 826 828 827 827 826 827 827 827 827 828 828 828 828 828 828 828 829 828 829 830 833 836 836 836 838 838 840 839 838 841 843 843 844 844 844 846 847 846 847 850 847 844 846 844 844 844 841 841 844 846 846 848 851 852 853 853 852
825 826 826 826 827 827 827 828 828 828 829 829 829 829 830 829 830 830 830 830 830 830 829 829 829 829 829 828 828 826 826 832 830 826 827 827 827 827 827 828 828 828 829 828 829 829 829 829 829 830 832 834 837 836 838 841 840 840 841 841 842 845 843 843 845 847 848 849 848 849 848 845 845 845 843 843 843 842 845 849 851 851 853 854 854 855 854 853
825 825 826 826 827 827 827 827 828 828 828 829 829 829 829 829 829 829 830 830 830 830 829 829 829 829 828 828 828 826 829 835 829 825 827 827 827 828 827 828 828 829 829 829 829 829 829 830 830 833 834 837 839 838 840 843 842 839 842 845 845 846 844 843 846 848 849 848 847 847 846 845 846 844 842 843 844 847 852 853 854 855 855 856 856 856 855 854
825 825 825 826 826 826 827 827 827 827 828 828 828 828 829 829 829 829 829 830 829 829 829 829 828 828 828 828 828 827 830 830 826 826 827 827 827 827 827 828 828 829 829 829 830 829 831 831 832 836 836 838 841 841 842 843 842 840 841 845 847 848 846 844 847 849 849 847 846 847 847 846 844 844 844 844 848 854 856 855 856 856 856 856 856 856 855 855
824 825 824 825 825 826 826 826 827 827 827 827 828 828 828 828 829 829 829 829 829 829 828 828 828 828 828 828 828 829 830 827 825 826 826 827 827 827 828 829 828 829 830 830 830 830 831 833 834 836 837 840 840 841 845 843 841 841 842 845 848 849 845 844 847 848 849 847 848 850 848 844 842 845 844 846 852 856 856 857 857 857 856 856 856 856 856 856
824 824 824 824 825 825 825 826 826 827 827 827 827 828 828 828 829 829 829 829 828 828 828 828 828 828 828 828 828 830 829 826 826 826 826 827 827 827 828 828 829 829 830 830 830 830 831 833 835 835 836 841 841 841 845 842 841 842 844 845 847 846 844 845 845 845 848 848 848 849 845 842 844 846 843 848 854 856 857 857 857 856 856 856 857 857 857 856
823 823 823 823 824 824 825 825 826 826 827 826 827 827 827 828 828 828 828 828 828 828 828 828 828 828 828 827 829 831 828 825 826 826 826 827 827 828 828 828 829 829 830 830 830 830 831 832 833 833 835 839 841 843 845 843 843 845 845 845 844 844 843 844 843 844 846 846 847 845 841 842 848 845 841 849 856 855 856 857 857 857 857 858 858 858 858 858
822 822 823 823 823 824 824 825 825 826 826 826 827 827 827 828 828 828 828 827 827 827 828 828 828 828 828 827 830 830 826 825 826 826 826 827 827 827 828 828 829 829 830 830 831 831 831 831 832 833 835 838 840 845 846 844 845 846 845 843 842 841 840 841 842 844 844 844 845 843 841 845 849 844 841 849 855 855 855 855 858 858 858 860 859 859 859 858
821 822 822 822 822 823 823 824 825 825 826 826 827 826 827 827 827 827 827 827 827 827 828 828 828 828 828 828 828 827 825 826 826 826 827 826 827 827 828 828 828 829 829 830 831 831 832 832 832 834 837 837 840 845 846 846 847 847 846 843 840 837 837 838 841 844 843 841 844 843 842 843 843 843 845 851 854 854 854 854 856 858 859 860 860 860 859 860
821 821 821 821 822 822 823 824 824 825 826 826 826 826 827 826 826 826 826 826 826 827 827 827 828 827 828 827 825 824 825 826 826 826 827 827 827 827 828 828 828 829 830 830 831 831 832 832 832 835 838 837 841 845 844 846 848 846 847 846 843 839 836 838 842 843 841 842 844 844 842 835 834 842 847 851 853 853 851 851 855 857 859 860 860 859 859 861
820 821 821 821 821 821 822 823 824 825 826 826 826 826 826 826 826 826 826 826 826 826 827 827 828 827 828 826 824 824 825 825 826 826 826 827 827 827 828 828 829 829 829 830 831 832 833 833 834 836 839 840 842 844 844 846 847 846 847 848 848 845 838 837 842 842 839 843 844 843 843 832 830 842 848 850 852 851 848 848 854 856 858 859 858 859 859 860
819 820 820 820 820 821 821 822 823 825 826 826 826 826 826 826 825 825 825 825 825 826 826 827 827 827 828 825 823 824 824 825 826 826 826 827 827 828 828 828 829 830 830 831 831 833 834 834 835 837 842 844 843 844 845 845 845 847 849 847 850 849 840 836 842 844 840 841 841 841 841 832 829 840 848 850 851 850 847 846 853 855 857 858 857 858 859 860
818 819 819 820 820 820 821 821 823 824 825 825 825 825 825 825 825 825 825 825 825 826 826 827 827 827 828 826 824 824 824 824 825 825 826 826 827 827 829 829 830 831 831 832 833 834 835 835 840 843 843 843 843 843 845 848 847 848 850 846 847 849 844 839 842 846 844 841 839 839 839 833 831 838 847 850 849 850 847 845 852 855 855 856 856 858 858 858
817 818 818 819 819 820 820 821 822 824 824 824 825 825 825 825 825 825 825 825 826 825 826 827 826 827 826 824 824 823 822 823 823 824 825 826 827 827 829 830 831 832 832 833 834 835 835 839 845 845 843 844 843 843 851 854 848 846 851 849 846 848 847 842 840 844 846 843 839 839 838 833 831 837 845 848 849 848 844 844 850 853 854 855 856 856 857 857
815 816 817 818 818 819 820 821 822 823 824 824 824 825 825 825 825 825 825 825 825 826 827 826 827 830 827 822 822 821 821 823 823 824 825 826 827 828 829 830 832 833 833 835 836 836 838 841 844 843 845 848 845 845 851 848 838 840 847 847 845 846 847 845 840 841 844 842 839 840 839 832 830 836 842 846 849 846 842 844 849 851 853 854 854 855 855 855
813 815 816 817 818 818 819 820 822 823 823 824 824 825 825 825 826 825 825 825 824 824 825 823 823 827 825 820 820 821 821 823 823 824 825 826 827 828 829 830 832 832 835 837 837 838 839 842 846 846 845 845 842 840 840 836 834 838 841 842 842 842 843 844 842 843 846 844 838 837 835 829 826 831 838 843 847 845 842 845 849 850 852 852 853 853 854 855
811 813 814 815 816 817 818 819 821 823 823 824 824 825 825 825 826 825 824 823 819 816 817 817 817 819 819 819 821 822 822 823 824 824 825 826 826 828 830 831 832 834 836 837 838 841 842 843 845 840 835 836 836 834 834 836 840 843 844 845 844 842 840 840 844 847 849 846 837 834 833 829 825 825 832 841 844 844 842 844 846 847 849 850 851 853 854 855
809 811 813 814 815 816 817 818 821 822 823 823 824 824 822 821 822 821 820 819 814 812 814 814 815 816 816 818 819 820 821 823 824 824 825 825 826 828 830 832 834 836 838 840 841 842 844 844 837 829 829 832 833 833 837 842 844 845 846 846 845 844 841 840 845 849 850 849 839 838 839 832 826 822 827 839 841 839 837 839 843 844 847 850 851 853 854 855
807 809 811 813 813 815 816 818 820 822 823 823 823 823 820 818 819 818 818 817 813 811 813 814 816 816 816 817 818 819 820 822 825 825 824 825 826 827 829 832 833 834 840 842 841 844 847 841 830 827 832 836 838 839 842 844 846 847 848 850 848 844 841 840 846 852 852 849 841 842 844 832 823 820 824 835 836 836 840 841 842 844 846 849 850 852 853 854
805 807 810 811 812 815 816 818 820 821 822 822 822 821 819 818 818 818 819 819 814 810 812 814 814 813 815 816 816 818 818 818 821 823 823 824 825 826 827 830 832 835 841 838 835 842 844 835 828 830 835 837 843 846 845 846 847 846 847 850 847 845 846 841 845 853 853 852 847 846 846 830 819 818 822 834 839 842 849 848 847 848 847 848 850 851 851 852
803 805 808 809 812 814 815 818 820 820 820 820 820 818 818 818 818 818 818 819 816 810 809 809 809 808 809 811 811 814 816 815 816 818 820 821 823 826 825 826 832 836 836 831 831 833 832 832 834 834 834 836 843 847 847 846 845 844 845 846 841 841 846 841 844 851 850 853 853 850 845 826 815 816 819 835 846 845 848 850 849 850 850 850 851 851 851 851
800 803 806 808 811 812 815 818 817 818 819 819 817 815 818 818 817 819 819 821 818 810 808 807 806 805 802 806 808 810 813 814 813 814 816 819 820 824 826 826 830 831 829 831 835 831 827 832 836 837 838 837 840 844 844 842 840 841 841 840 838 836 841 843 848 852 848 848 850 851 846 824 811 814 817 831 842 841 844 847 845 846 849 850 850 850 851 852
798 801 803 806 809 811 815 815 815 817 818 817 815 814 817 817 818 819 819 828 822 806 806 805 802 801 799 805 807 809 815 814 811 813 815 818 817 819 825 827 829 829 828 833 838 834 831 835 835 836 840 840 841 840 839 839 840 841 839 838 838 837 842 846 850 852 848 845 850 854 848 830 814 808 814 831 835 833 839 842 840 842 845 847 846 846 849 851
796 799 801 803 807 809 811 811 812 815 816 815 812 814 817 815 819 817 820 836 820 794 798 803 800 798 797 804 804 806 814 811 811 815 815 817 818 818 821 825 829 831 831 836 838 833 832 838 839 837 838 842 841 836 836 839 838 839 842 843 840 840 845 847 848 850 846 845 851 853 849 844 831 812 814 830 829 824 829 833 835 838 840 842 843 844 846 848
793 797 798 801 804 806 807 808 810 812 813 812 810 814 815 815 819 815 826 841 812 783 791 799 798 797 798 805 804 805 811 808 810 816 816 817 818 819 821 821 823 827 830 832 831 829 830 835 836 835 838 839 834 830 834 836 836 841 848 849 845 844 846 846 848 848 848 850 849 847 849 851 836 814 814 827 823 814 811 817 826 831 835 838 839 843 846 847
791 794 795 799 801 803 805 806 808 809 810 810 811 813 812 817 817 816 837 839 796 779 792 794 797 801 802 807 807 808 812 810 811 815 817 818 817 819 822 822 821 826 831 829 825 828 833 836 834 832 832 831 830 836 838 833 834 845 852 850 849 851 850 850 850 846 851 857 846 839 845 846 830 811 810 821 818 806 800 808 819 825 830 835 838 842 845 847
788 790 793 796 798 801 803 804 806 807 809 809 810 811 813 817 816 827 848 823 779 784 797 793 799 803 803 807 810 811 811 813 815 816 818 819 818 821 822 824 824 827 832 832 830 832 837 841 839 833 830 830 836 847 849 842 842 847 847 845 847 851 850 851 849 847 854 852 838 833 834 837 833 814 801 805 807 802 801 808 819 823 828 833 837 842 844 846
785 786 790 792 793 795 798 801 803 804 808 808 809 812 813 817 823 833 831 793 772 791 797 796 803 803 801 802 805 810 812 816 817 815 818 819 820 823 823 824 826 831 835 833 832 834 837 838 835 834 835 835 837 845 852 853 851 846 839 839 845 847 849 850 849 853 855 841 836 842 838 838 836 814 795 794 800 806 806 808 815 821 826 832 836 840 843 846
782 784 786 788 790 792 793 797 800 803 807 807 810 811 811 824 831 819 799 778 778 788 786 793 802 801 800 798 801 809 811 814 816 814 816 818 819 819 817 816 819 828 834 829 830 834 833 830 830 833 838 836 831 838 849 853 851 844 837 839 844 846 851 851 848 851 847 836 842 849 845 840 829 807 793 792 799 809 812 814 817 818 823 830 835 839 842 845
778 781 783 784 786 788 789 794 798 802 805 807 812 810 813 827 818 794 784 778 779 783 782 790 797 799 799 798 803 809 808 811 814 815 816 817 818 817 814 813 813 817 820 821 828 832 829 827 830 833 833 830 824 826 837 843 844 840 833 834 837 842 852 851 846 847 840 836 846 849 843 836 819 801 794 795 806 818 821 823 824 821 823 827 832 837 841 844
773 777 779 781 783 784 786 792 795 799 803 807 811 812 818 819 792 774 778 776 777 786 788 791 798 801 800 799 804 805 806 812 813 814 818 818 819 817 814 815 815 813 816 821 825 827 825 820 820 822 821 820 818 814 816 825 834 834 826 827 828 828 835 836 833 832 829 834 847 852 839 820 806 802 804 809 820 827 826 827 829 827 826 827 832 837 840 843
769 772 775 777 780 781 784 788 791 795 800 805 809 812 812 799 775 769 773 771 779 790 792 793 797 801 801 803 806 803 801 808 812 815 816 815 813 810 807 809 812 813 814 818 819 822 823 811 808 817 817 815 816 813 813 819 830 834 830 831 829 818 818 831 838 836 836 837 840 843 829 805 796 802 812 821 823 824 826 827 828 828 828 829 833 836 838 841
765 768 771 771 772 776 781 785 787 791 796 802 809 806 792 772 762 766 764 763 775 785 792 796 795 798 802 802 806 806 801 804 811 814 813 814 810 806 804 801 804 807 803 805 811 816 819 814 814 823 820 818 819 815 816 818 821 831 834 830 826 820 817 831 846 850 849 836 822 822 818 805 800 800 807 817 815 817 825 824 824 826 828 830 831 833 835 837
760 762 764 763 765 769 776 781 783 787 792 798 800 790 774 760 757 760 759 759 768 774 781 787 785 788 794 796 799 803 802 803 809 808 808 813 805 798 803 799 796 799 793 793 800 802 805 809 817 822 818 823 829 822 820 820 818 826 829 820 821 827 823 823 831 838 842 832 815 813 810 803 802 799 801 807 806 807 815 820 823 826 828 829 828 829 832 834
752 757 758 756 759 763 770 777 779 783 789 793 791 777 764 759 754 755 757 759 763 767 771 774 774 776 781 785 789 796 798 798 805 805 803 806 794 782 792 795 791 793 789 791 798 797 797 802 814 825 822 824 830 823 820 822 821 822 821 814 816 824 823 823 827 827 830 827 814 810 809 800 793 791 792 795 794 793 802 815 820 821 824 825 823 826 830 833
746 752 750 747 753 758 764 770 774 781 784 785 784 771 755 753 752 752 755 756 758 763 764 762 766 771 774 776 779 789 794 791 797 799 793 794 788 777 780 782 783 788 787 791 797 796 798 799 807 824 826 823 826 822 817 818 824 826 821 817 818 817 814 816 818 814 814 816 809 808 809 796 781 778 780 782 781 782 792 806 811 811 814 818 819 822 827 830
740 745 737 734 746 754 760 766 770 777 776 771 769 758 748 750 753 753 752 752 753 757 756 755 760 767 771 774 774 780 787 786 789 790 783 782 781 778 777 774 777 786 787 791 795 796 800 799 801 820 830 823 816 811 804 802 811 818 816 815 818 817 816 816 812 808 809 808 805 806 800 783 776 776 772 771 775 777 784 793 798 803 808 812 817 820 823 827
734 737 729 728 740 748 757 764 763 765 767 763 757 750 748 749 751 753 753 751 751 751 752 752 753 758 765 771 771 774 781 784 784 783 779 776 773 770 771 768 771 782 790 797 798 793 797 798 800 816 823 813 803 803 803 800 800 802 801 800 802 805 812 814 810 812 814 806 800 804 796 779 780 788 780 776 779 781 785 788 792 800 806 811 817 819 821 824
732 729 722 724 733 741 752 757 753 756 759 753 744 742 746 747 748 753 753 753 752 751 754 755 751 752 757 760 763 768 774 779 782 779 773 769 763 759 761 763 766 773 781 789 788 784 790 796 799 808 809 805 804 810 816 812 804 801 799 794 792 793 797 798 799 807 815 810 803 808 803 785 786 798 795 792 795 795 797 796 795 799 805 810 815 818 820 822
729 724 720 720 724 733 745 748 748 753 751 741 737 740 743 743 746 750 750 752 752 751 754 754 749 751 752 753 758 763 765 768 772 771 766 764 760 756 758 762 766 769 771 776 780 784 790 793 796 801 801 802 806 810 814 815 809 803 799 796 794 789 787 789 792 796 801 802 802 809 805 788 788 801 803 802 805 805 805 804 801 802 806 810 813 816 819 821
726 726 724 719 717 724 734 738 743 749 743 737 740 742 740 739 741 744 745 746 747 748 751 750 746 746 747 749 753 755 756 757 760 761 760 761 761 760 761 762 763 764 764 765 769 778 786 787 792 800 803 803 806 806 807 809 807 797 790 792 792 788 791 798 800 800 795 789 791 797 793 782 785 799 804 805 805 802 803 806 806 806 807 809 812 814 817 820
725 726 726 721 715 716 720 722 728 739 740 738 740 739 737 736 735 735 738 740 741 742 744 743 742 743 746 750 749 748 749 747 749 756 759 760 762 765 766 763 759 759 760 761 762 768 776 778 781 790 795 793 790 787 782 785 794 793 787 790 790 788 792 794 795 799 795 787 786 784 778 780 790 797 798 801 804 799 798 804 807 807 807 808 811 813 815 817
722 723 724 723 717 712 712 713 720 730 734 737 738 734 733 732 729 729 734 736 737 738 738 739 741 743 746 747 746 747 748 745 747 753 756 757 761 767 769 766 762 761 762 763 764 766 771 771 768 769 769 765 762 762 760 766 779 785 784 786 786 785 787 788 788 789 787 790 787 774 769 780 791 793 792 795 799 794 792 798 803 805 807 809 810 812 813 814
718 718 718 719 717 712 710 711 717 720 722 726 728 725 724 726 727 730 733 730 729 733 737 738 738 738 738 740 742 744 746 747 749 750 751 754 761 769 772 769 767 766 766 766 765 765 769 768 761 758 757 754 756 761 761 761 765 770 776 781 782 783 786 787 784 776 778 787 780 766 770 776 778 784 787 788 792 791 789 793 797 800 804 807 809 810 811 813
714 713 712 713 714 713 708 706 708 711 714 720 722 718 719 723 723 725 727 725 725 730 736 738 735 729 726 730 737 742 746 750 749 745 746 753 761 768 771 770 770 770 769 772 771 766 765 761 757 759 759 757 762 768 764 759 757 759 766 772 774 779 783 783 778 771 774 776 766 763 772 769 766 775 780 780 782 782 783 788 792 796 801 804 807 809 809 811
712 712 712 713 714 714 712 707 705 708 711 716 718 715 715 717 715 714 719 725 727 726 727 729 726 723 722 725 730 737 740 741 739 738 743 749 755 760 764 765 768 770 769 769 771 768 763 758 758 763 763 760 765 768 766 764 762 761 762 763 765 770 774 774 774 772 771 766 759 766 775 768 764 769 772 774 778 779 784 789 792 795 799 802 805 806 806 808
709 708 709 714 716 716 716 713 709 708 708 711 712 711 710 710 709 708 712 718 721 721 721 718 714 716 721 724 726 726 723 719 720 726 735 743 748 751 751 750 757 768 769 765 767 768 763 760 762 765 766 765 767 768 769 768 764 763 764 761 760 765 772 775 773 772 774 769 764 772 776 769 765 766 769 778 784 785 788 790 791 794 797 800 802 802 803 805
707 705 705 711 716 716 716 716 713 708 706 707 707 705 706 705 703 704 707 708 708 713 716 712 709 713 720 723 723 718 711 709 712 717 724 730 732 734 737 739 747 760 766 765 763 763 764 766 769 771 767 763 765 770 772 772 773 774 767 758 758 764 771 775 772 767 769 768 769 775 772 763 762 767 773 783 786 784 785 787 790 792 795 796 797 798 800 801
707 706 704 707 714 716 716 717 717 712 706 703 701 700 701 701 700 704 710 709 707 709 712 709 709 714 719 720 717 710 707 712 717 720 722 724 724 727 733 736 740 746 754 762 763 762 763 765 768 769 762 760 770 774 774 781 783 771 751 743 752 761 763 767 767 762 761 762 765 768 761 755 761 767 772 779 782 779 780 783 785 787 791 793 793 794 796 798
Wind_Speed
1 1 2 1 1 1 1 1 1 2 2 2 2 2 1 1 1 1 1 1 1 0 1 2 3 4 5 6 8 9 10 11 7 5 3 1 2 5 4 3 4 4 4 4 3 3 3 3 4 3 2 2 2 1 1 2 1 1 1 1 1 2 2 3 6 3 2 5 4 1 1 3 1 2 1 1 3 2 3 2 5 6 7 6 5 6 8 9
0 1 1 2 2 2 2 2 2 3 3 2 2 2 2 2 2 1 1 1 0 1 1 2 3 5 6 7 8 9 11 9 3 5 5 2 4 6 4 3 4 5 5 3 3 2 2 3 3 2 1 1 1 1 1 1 2 0 0 1 1 2 2 1 4 3 1 4 4 1 0 2 2 2 0 3 2 1 3 3 7 4 5 6 7 8 9 10
1 1 0 1 2 3 3 3 3 4 3 3 3 3 2 2 2 1 1 1 1 1 2 3 4 5 6 7 7 8 10 6 1 4 5 4 5 5 4 4 5 5 4 3 3 2 3 3 3 1 0 1 2 1 0 2 2 0 1 1 2 2 1 1 3 3 1 2 2 2 1 3 1 1 1 3 4 2 1 2 4 3 2 4 7 9 10 10
1 1 1 1 2 2 3 4 4 4 3 3 3 2 2 1 1 1 1 2 2 3 4 4 5 5 5 6 5 7 8 3 2 2 2 4 4 5 5 5 5 5 3 3 4 5 5 5 4 2 0 1 2 1 1 3 2 0 1 1 4 2 2 3 3 2 2 1 1 2 1 4 1 0 2 3 5 2 3 3 2 2 4 4 6 8 9 9
1 0 1 2 1 2 3 4 4 4 4 3 3 2 2 1 0 0 1 2 3 4 4 4 5 4 4 4 4 6 7 2 2 1 2 3 4 5 5 5 5 3 3 4 6 6 5 3 3 2 1 1 1 0 1 3 2 1 1 3 4 1 1 4 2 2 2 1 1 2 2 2 1 2 3 5 7 1 3 4 4 4 5 4 5 5 6 8
1 1 1 2 2 2 3 4 4 4 4 3 3 2 1 0 1 1 2 2 3 3 4 4 3 3 3 2 3 4 5 1 2 3 3 3 4 6 5 5 4 3 3 4 5 4 3 2 0 1 1 1 1 1 2 2 2 1 1 1 1 1 1 3 3 3 3 3 3 2 1 0 2 4 3 5 5 2 4 4 5 5 4 3 4 4 6 7
2 2 2 3 3 3 3 4 5 4 4 3 2 2 1 0 1 2 2 2 3 3 3 3 3 3 2 1 1 1 2 1 1 5 4 3 4 5 5 5 4 4 3 4 4 2 2 1 1 1 1 1 1 1 2 1 1 2 1 2 1 1 2 1 2 3 4 4 2 1 1 4 6 4 1 3 1 6 4 5 5 5 4 3 5 6 7 7
5 3 3 3 4 4 4 5 5 5 4 3 2 2 1 1 2 2 2 2 2 2 2 2 2 2 1 1 1 1 1 0 2 4 4 4 5 5 5 5 3 4 4 4 4 3 2 1 2 2 1 2 1 2 1 1 2 1 0 3 2 2 4 2 2 4 5 4 1 1 5 7 4 2 1 2 5 6 4 5 4 3 5 5 6 7 7 7
6 4 3 4 5 4 4 5 5 5 4 4 3 3 2 2 2 2 2 2 2 2 2 1 2 1 1 2 0 2 1 2 2 2 3 4 6 6 5 4 4 4 5 4 4 4 3 1 2 3 1 3 2 2 1 2 1 0 1 1 2 2 3 3 5 4 4 3 3 5 7 4 1 1 2 4 6 5 5 4 3 3 5 6 6 6 7 7
8 5 4 5 4 4 4 5 5 5 5 5 4 3 3 3 3 2 2 1 2 2 1 1 1 1 2 2 1 2 1 3 2 2 3 5 6 6 5 4 3 5 5 4 4 4 2 2 4 3 1 3 2 1 0 2 1 1 0 2 4 3 2 3 4 3 3 3 6 7 6 1 3 1 2 4 6 5 5 5 4 4 5 5 4 5 6 7
8 5 5 5 5 5 5 5 6 5 4 4 4 5 4 3 3 2 2 2 1 2 1 0 1 1 2 3 3 2 2 3 3 3 4 5 6 7 5 4 3 4 5 5 5 4 1 4 8 3 0 3 4 2 0 0 1 1 2 4 4 4 4 4 3 2 2 3 6 7 3 3 3 2 1 5 6 4 5 5 4 4 4 4 3 4 5 7
8 6 5 5 6 5 5 5 6 5 4 4 5 5 4 3 2 2 2 1 1 2 1 0 1 2 2 1 3 3 3 4 3 4 4 5 6 7 5 5 4 4 5 4 5 4 3 8 9 3 1 3 4 1 2 1 0 1 3 5 4 6 5 1 1 1 2 2 4 5 3 4 6 3 3 6 6 4 5 4 4 3 3 3 3 3 5 7
9 8 6 6 6 6 6 6 6 5 4 4 5 4 3 3 2 2 1 2 2 1 1 1 2 3 2 2 2 4 5 5 4 4 5 5 6 6 6 6 6 5 4 4 7 6 5 8 6 3 2 2 2 1 3 3 1 1 0 3 5 6 3 1 1 1 2 2 3 4 4 3 5 4 4 6 5 5 6 4 3 3 2 2 3 3 4 6
10 10 9 8 6 6 7 7 6 5 4 5 5 4 3 2 2 1 1 1 1 1 1 1 3 4 2 2 1 3 6 5 4 5 6 6 7 7 7 6 6 5 4 5 7 7 7 8 6 5 2 2 2 4 3 2 0 1 1 1 2 4 1 3 1 2 1 2 3 5 5 3 4 6 5 5 6 6 6 4 3 2 2 2 2 3 3 5
11 12 11 9 7 7 8 8 7 5 5 5 4 3 2 2 2 1 0 0 0 1 2 2 4 3 1 3 1 2 5 5 6 7 7 8 8 7 7 7 7 6 6 7 8 9 8 8 6 5 2 1 3 4 1 0 1 1 3 3 2 2 1 2 2 2 1 2 3 6 5 2 3 6 5 3 6 6 6 4 3 2 3 2 2 3 2 3
12 12 11 10 9 8 7 8 7 4 4 5 3 2 2 2 1 0 2 2 2 3 3 3 4 2 2 2 2 2 3 5 7 8 9 10 7 7 10 10 10 9 9 10 11 11 8 6 3 1 1 2 3 3 2 2 2 1 3 4 2 3 2 0 2 2 2 1 2 4 4 2 3 6 5 3 6 7 7 4 4 2 2 2 1 2 1 2
14 12 12 12 10 8 7 7 6 3 5 5 2 1 1 1 1 2 3 4 4 4 3 4 5 2 3 1 1 3 3 5 7 8 10 9 7 10 13 9 7 9 11 10 9 7 4 3 1 1 1 1 3 3 3 4 5 2 3 4 3 4 4 2 2 3 1 2 3 3 5 4 3 7 4 3 5 7 8 5 4 3 2 2 2 1 2 2
15 14 13 11 9 8 7 8 5 3 5 4 1 0 1 2 2 3 5 6 6 5 3 4 4 2 4 3 2 2 4 5 7 8 9 9 9 12 10 6 6 8 9 6 3 2 1 2 1 2 2 2 4 5 6 5 4 2 3 4 3 4 6 5 2 1 1 3 4 4 7 8 5 8 5 2 4 7 8 5 4 4 4 4 3 3 3 2
16 16 13 11 11 9 8 8 6 4 5 3 1 3 4 3 2 3 5 6 4 3 1 3 4 2 2 2 3 5 7 8 8 8 9 10 11 10 7 7 6 5 6 4 3 2 1 2 2 3 5 7 8 10 10 3 2 1 2 3 4 5 5 3 1 1 1 3 8 8 10 11 8 8 8 5 4 6 6 4 5 5 5 5 4 3 3 2
18 16 12 13 13 9 10 10 7 5 6 3 3 4 3 2 2 2 4 4 5 3 1 4 6 1 1 1 5 8 8 7 4 5 10 12 13 10 6 5 4 3 4 4 4 2 1 3 6 7 6 8 12 12 7 2 4 1 1 3 6 7 5 1 3 1 1 4 8 9 11 13 12 9 8 7 5 7 8 7 7 6 6 5 5 4 3 2
18 16 14 15 12 9 11 12 8 6 6 5 4 3 2 3 3 1 2 5 9 7 4 4 4 2 1 3 9 11 5 3 1 4 11 12 12 10 4 4 5 5 3 2 4 2 2 6 10 9 3 4 10 9 3 1 2 2 3 5 6 7 7 1 3 1 1 4 6 4 9 14 14 12 6 8 8 9 10 9 8 7 6 4 5 5 3 2
19 17 16 16 11 9 12 12 10 7 6 6 5 4 3 2 1 1 0 4 6 9 8 3 3 5 2 5 11 10 2 2 3 4 10 11 8 6 4 6 7 5 4 3 4 2 4 9 11 4 5 4 3 5 5 5 5 3 3 5 6 4 5 3 3 2 2 4 4 1 7 13 13 12 7 8 8 6 3 4 4 5 6 5 5 5 5 4
19 18 18 15 11 10 11 12 10 8 9 8 6 6 3 1 2 2 0 4 3 5 7 5 6 8 6 4 9 10 5 5 5 6 12 11 5 3 6 9 7 4 6 8 8 5 5 7 6 5 7 6 4 4 7 5 5 6 5 5 6 2 2 5 2 3 3 3 3 3 6 12 12 11 7 5 3 1 2 1 2 3 4 4 4 4 5 6
20 19 18 15 12 11 12 12 10 10 12 10 11 11 4 2 4 2 1 3 3 2 4 5 5 7 8 6 11 14 7 4 4 6 15 14 6 4 6 7 6 5 8 12 11 10 6 0 1 6 8 8 5 5 8 6 6 8 8 8 8 5 6 8 1 2 2 3 2 4 8 10 8 9 6 3 2 1 2 4 4 4 4 3 3 4 4 4
22 21 18 16 14 13 13 10 11 13 12 10 14 14 8 4 4 2 1 2 4 2 1 4 4 6 8 8 13 12 4 3 2 4 15 14 6 6 4 3 4 8 10 10 8 10 6 3 5 7 7 8 7 6 9 9 6 6 9 12 12 10 8 7 1 1 5 4 2 2 7 5 1 5 5 3 2 4 5 6 7 6 5 5 5 6 5 4
24 22 19 19 16 16 13 7 11 14 11 12 14 10 11 8 6 3 1 3 5 3 2 4 5 7 9 8 10 9 2 5 1 4 13 11 3 4 3 3 1 5 7 6 3 5 3 3 5 6 7 9 8 7 8 9 6 5 4 8 12 11 7 6 4 3 5 3 1 1 6 5 3 5 2 4 4 6 7 8 9 8 7 7 7 6 6 6
26 23 22 22 19 21 13 5 10 12 8 10 12 11 13 11 8 4 1 4 6 4 4 2 2 5 9 5 7 8 3 3 4 5 6 6 4 1 3 7 3 1 4 4 3 2 4 5 4 5 7 7 8 7 7 10 7 3 1 3 8 9 8 8 7 6 4 2 0 3 3 4 7 6 2 3 5 7 10 11 10 10 9 9 8 7 7 7
28 25 25 24 24 25 15 6 11 13 10 7 6 13 15 12 10 3 1 6 4 4 4 1 1 3 5 3 2 3 1 1 4 3 2 2 3 1 4 8 7 6 5 5 6 2 4 7 8 9 8 7 7 2 8 13 7 1 2 2 3 4 5 6 6 6 2 2 4 5 4 4 8 5 1 2 5 9 10 12 13 12 11 10 9 8 7 7
29 27 27 26 26 27 19 11 11 12 15 10 5 13 17 13 9 2 0 5 2 4 2 2 4 3 4 5 2 2 1 2 1 1 2 2 2 1 2 4 4 7 4 4 5 1 2 3 4 7 7 6 3 3 4 11 5 3 5 6 6 4 3 3 3 3 2 3 8 7 9 6 6 5 4 2 4 8 5 6 9 12 11 10 9 8 8 7
30 29 28 27 27 31 23 14 12 10 10 9 7 15 18 10 5 3 4 6 2 3 2 2 3 2 8 10 3 1 2 2 2 3 2 2 3 3 0 1 3 5 2 3 3 1 2 0 1 3 3 2 5 5 3 1 3 7 7 6 6 4 3 2 1 1 2 6 6 7 13 10 5 4 6 5 2 2 0 2 5 10 10 10 9 8 8 7
32 30 30 30 31 34 24 13 16 13 5 7 12 17 14 3 1 5 7 3 0 2 3 3 2 5 12 12 5 4 3 2 3 6 5 3 3 3 3 3 3 3 2 4 4 1 1 2 2 1 1 3 6 5 4 3 2 4 4 5 4 2 2 2 2 2 6 6 2 1 7 9 8 4 4 4 1 1 1 1 5 10 10 9 8 8 8 7
34 33 32 32 33 34 26 17 22 18 7 10 16 12 6 3 2 8 5 2 1 4 5 4 4 8 11 6 3 5 5 2 4 6 5 5 6 7 7 6 6 4 4 7 5 1 2 5 2 2 0 3 6 6 4 2 2 3 4 7 6 3 3 4 3 4 6 4 2 2 3 5 8 7 7 6 1 2 1 2 2 7 10 10 9 9 8 7
36 36 34 33 34 36 30 22 23 21 14 15 14 3 1 5 8 10 7 4 2 1 3 4 4 6 9 6 3 5 3 2 6 4 2 3 5 7 6 3 4 2 2 6 6 3 3 2 3 4 2 5 10 8 5 5 6 7 8 8 8 5 4 5 4 3 5 1 3 1 3 3 4 6 10 7 2 3 2 3 2 2 7 10 10 9 8 7
38 39 37 36 37 37 34 27 24 25 21 16 9 3 4 9 11 10 11 7 1 3 3 4 6 6 7 4 2 6 3 2 8 6 3 5 5 7 7 6 7 2 2 4 4 5 6 3 6 10 4 8 14 9 4 7 8 8 5 4 5 5 4 5 4 3 3 1 2 1 3 5 3 2 3 2 2 2 1 3 2 1 4 7 8 8 8 8
38 40 40 38 38 37 35 30 28 29 24 13 5 6 9 13 11 8 9 6 3 2 3 4 7 7 5 1 0 4 3 2 7 6 5 7 6 7 8 8 10 5 3 5 3 4 6 5 3 4 1 10 13 5 4 7 7 4 1 1 4 4 2 1 1 0 2 1 2 4 3 3 2 1 1 0 2 3 2 3 3 3 4 7 8 8 9 9
40 41 38 37 37 38 37 32 32 34 24 10 5 8 11 13 7 4 6 6 5 7 8 4 4 5 5 3 3 6 2 0 7 6 4 5 5 5 5 6 11 12 8 7 3 3 4 2 2 2 0 5 5 2 3 2 4 4 3 5 3 1 1 1 1 2 1 5 3 4 4 3 1 2 3 4 4 5 4 3 4 5 6 8 8 9 10 9
40 36 31 32 37 40 41 37 36 34 19 7 8 10 11 10 5 6 5 5 6 10 10 5 6 7 7 5 6 9 5 2 6 6 4 4 4 7 7 5 9 16 14 6 2 3 3 1 2 3 2 1 3 1 2 2 1 5 5 6 4 2 1 1 3 1 2 7 3 4 8 6 5 3 3 5 6 7 7 6 5 5 7 9 10 10 11 10
37 28 21 29 39 44 45 42 38 27 10 4 10 13 12 9 7 8 5 4 7 10 9 8 7 7 7 7 6 9 10 6 7 7 5 5 4 8 12 6 7 16 15 5 1 2 3 3 2 2 1 2 1 2 3 1 1 1 2 3 3 3 4 4 4 3 4 6 4 4 7 7 8 6 5 8 10 10 9 7 6 8 9 10 10 11 11 10
30 16 12 29 43 46 49 45 32 15 4 6 11 13 11 8 7 8 6 5 7 9 10 10 7 5 6 7 5 8 10 8 10 8 6 6 4 6 13 9 7 13 15 9 3 1 2 4 2 1 1 3 3 5 7 6 2 1 1 2 0 3 3 3 3 2 3 5 4 3 4 5 7 8 11 13 12 10 9 7 8 11 11 10 10 11 12 11
18 6 6 29 46 47 49 41 21 8 6 9 13 11 8 6 6 6 6 8 6 5 8 10 8 6 5 5 4 5 8 7 9 8 6 8 6 5 11 10 6 7 10 9 4 1 2 4 4 2 1 3 5 7 9 10 8 6 6 7 5 2 0 2 2 1 2 4 4 4 5 3 3 4 10 13 10 8 9 8 9 9 9 9 8 9 11 11
10 6 5 30 50 49 40 23 10 10 8 9 14 13 7 5 6 6 5 8 7 2 2 7 10 8 5 6 4 4 6 6 8 8 5 8 8 4 9 12 8 8 8 5 5 5 4 3 3 4 4 6 5 2 2 3 5 7 8 10 11 8 5 4 5 3 1 3 3 3 5 2 3 0 2 4 3 3 5 5 5 5 7 7 7 8 9 10
5 7 9 37 57 49 29 8 6 10 8 10 15 13 5 4 5 9 7 7 8 5 0 3 8 8 6 7 6 6 7 6 7 8 5 9 13 8 8 11 11 13 11 6 7 7 3 1 2 2 3 4 0 2 1 3 2 2 4 6 8 8 8 8 6 3 3 3 0 1 4 1 1 1 1 2 1 1 0 2 3 3 5 6 8 9 8 8
3 4 16 48 63 45 19 8 9 9 10 13 14 9 5 5 8 11 10 10 10 7 6 4 6 9 7 5 5 7 9 7 9 11 7 6 10 6 6 11 13 14 10 5 5 5 3 2 5 2 0 1 1 1 1 1 1 4 6 5 6 8 7 4 2 2 5 5 3 2 5 2 1 1 1 2 2 1 2 4 5 4 4 6 8 9 9 8
3 1 8 41 64 44 14 9 12 11 13 16 14 11 10 9 11 13 12 13 11 8 10 9 7 10 8 4 6 10 11 9 9 11 8 5 4 1 5 13 15 12 8 4 6 7 5 4 5 3 3 3 2 3 4 4 5 7 7 6 8 8 5 2 1 1 5 7 9 7 6 4 3 1 1 2 2 3 5 4 5 5 4 6 7 8 10 10
2 1 3 17 40 31 12 11 14 13 16 17 16 17 15 9 10 15 14 13 11 10 11 9 7 8 6 4 7 10 12 12 9 7 7 5 2 1 3 10 14 11 5 2 7 10 6 6 8 7 8 9 8 6 6 6 5 4 4 7 11 13 11 6 3 5 7 6 10 10 7 3 2 1 2 3 3 5 6 4 5 5 5 5 6 8 9 10
2 3 1 5 11 12 10 12 13 12 15 17 15 16 20 15 9 11 14 14 13 13 11 5 5 8 8 10 12 11 12 13 7 3 6 6 3 0 1 5 8 7 3 5 11 11 3 4 11 14 13 12 8 4 3 7 7 8 8 11 13 15 15 9 5 7 6 4 7 12 7 3 4 5 6 6 6 7 6 5 5 5 5 6 6 7 8 9
2 3 4 4 4 7 9 11 12 12 15 17 12 12 20 21 11 7 11 14 14 14 11 4 6 13 15 16 16 11 11 12 8 6 7 5 2 1 1 2 3 3 4 5 9 7 2 5 14 18 18 12 3 1 4 9 13 14 12 13 14 13 15 15 12 8 7 5 9 8 8 9 10 11 10 9 9 8 6 7 7 6 6 7 6 7 8 9
3 2 3 2 0 4 6 9 15 16 17 16 11 9 17 21 18 12 10 10 11 13 10 6 11 20 22 20 15 10 10 10 10 11 8 5 4 2 2 1 2 3 4 3 4 3 3 8 12 14 18 12 1 0 5 7 8 10 13 15 15 15 16 18 17 11 9 10 12 7 12 15 10 10 11 11 10 10 7 7 6 5 6 7 8 8 9 10
2 1 1 0 1 2 3 3 11 17 18 15 12 12 15 19 22 17 8 5 8 13 15 14 17 21 22 19 15 11 12 12 13 12 8 6 6 5 3 2 3 2 4 5 4 3 3 6 5 6 13 13 5 3 4 5 3 5 9 13 14 16 18 18 18 14 12 16 13 4 8 13 5 8 10 7 5 5 5 4 4 6 7 8 9 9 9 10
1 2 2 2 0 2 3 3 5 12 15 14 12 12 13 17 21 17 9 9 10 12 16 21 23 20 18 17 15 15 18 20 19 14 11 10 7 6 6 5 4 3 4 5 4 2 4 5 3 4 7 9 6 4 3 4 4 4 7 11 12 11 11 13 15 13 11 14 10 2 6 10 4 7 6 4 5 5 5 6 6 6 7 9 9 9 9 9
1 2 1 4 2 3 2 1 2 7 10 11 12 12 13 17 20 15 9 10 13 11 13 22 24 16 13 15 17 20 22 20 17 12 13 15 12 9 7 5 7 9 6 5 4 4 5 4 3 4 8 8 6 8 6 2 0 5 12 16 13 9 9 10 11 11 13 13 10 7 11 10 5 6 4 5 6 7 7 8 7 6 8 9 9 9 8 9
1 3 2 3 3 3 3 2 2 5 6 6 9 12 12 13 16 14 8 5 8 7 7 15 19 11 9 15 19 20 17 11 6 4 7 8 6 5 5 6 10 12 10 7 4 3 6 5 4 7 9 6 4 8 8 4 1 8 15 17 16 12 10 9 9 12 15 13 10 11 12 7 5 7 6 6 7 7 8 8 6 6 8 8 8 7 7 8
Wind_Direction
142 181 185 176 172 181 178 175 168 159 158 143 129 144 168 176 181 183 149 115 115 82 358 8 360 3 2 356 352 349 342 337 340 4 13 301 184 158 143 132 150 149 142 142 150 143 109 82 59 79 119 67 7 344 88 38 3 252 232 185 171 164 172 168 159 158 104 124 141 88 342 307 345 134 131 233 203 234 279 121 97 70 72 79 61 16 3 14
110 214 201 177 185 191 179 184 185 174 168 157 166 168 181 185 179 186 143 115 62 42 2 2 354 357 356 351 350 345 338 333 2 51 32 45 153 153 140 133 148 150 147 147 157 177 154 99 71 83 114 90 359 340 182 355 332 300 121 257 161 128 101 128 146 141 124 115 126 131 344 297 322 38 31 268 197 190 291 142 138 124 109 98 55 31 23 26
26 333 288 181 201 202 177 182 182 170 171 168 171 171 179 179 156 158 127 56 3 359 351 348 349 351 349 347 343 340 336 325 100 40 27 75 123 134 136 136 144 151 149 150 147 157 143 110 99 82 46 72 35 345 351 7 331 272 224 273 116 123 96 161 191 165 138 97 140 155 147 279 302 24 292 294 294 243 269 86 151 168 106 68 40 27 22 28
92 356 343 302 230 222 189 188 181 166 175 174 165 164 170 165 139 112 15 355 345 340 342 339 340 342 343 341 333 338 330 288 145 22 45 90 108 115 117 125 144 149 139 146 129 122 121 97 76 41 16 97 49 311 24 17 341 148 292 24 102 149 155 154 205 189 149 176 244 126 189 273 358 335 269 285 294 241 131 54 22 18 38 37 34 22 17 26
141 327 335 317 257 230 212 197 186 177 177 174 167 158 144 141 287 7 351 339 335 331 333 328 332 336 335 335 325 330 316 265 138 164 114 99 109 109 110 123 146 143 135 151 123 113 115 84 66 51 35 82 44 330 65 25 346 158 45 37 95 171 128 122 155 155 148 175 184 167 236 287 73 238 244 248 276 303 84 43 36 42 48 44 32 15 18 29
197 234 252 288 274 244 228 204 193 189 182 180 178 164 161 161 311 321 332 327 324 318 320 323 334 335 333 335 322 318 300 285 145 190 146 121 130 116 122 130 142 141 151 163 134 117 103 70 77 90 50 71 27 30 71 38 321 285 102 64 117 203 358 100 132 159 163 183 201 233 289 24 227 252 241 242 270 48 55 42 58 59 60 56 42 32 34 35
264 254 231 248 258 249 234 211 201 201 191 189 194 191 210 275 318 321 319 312 313 307 319 335 345 348 350 342 339 356 288 296 183 194 173 164 158 133 134 135 142 144 153 166 151 137 119 121 146 130 97 96 86 91 74 32 262 290 109 140 154 223 262 108 130 165 188 213 220 9 316 235 241 260 226 212 86 79 79 65 70 71 74 70 56 46 41 40
255 260 239 236 253 249 224 213 207 208 202 198 208 216 239 272 289 308 301 299 307 301 324 349 3 23 55 153 204 310 257 205 160 188 187 188 178 156 144 147 162 154 159 170 166 162 158 160 130 174 194 74 176 145 95 265 189 262 55 132 140 213 239 238 222 207 206 230 222 174 245 249 253 290 255 145 102 96 99 83 79 85 79 63 50 41 37 37
242 262 256 240 251 242 215 215 211 207 208 206 217 226 240 252 264 285 288 295 300 302 341 7 23 46 148 128 192 275 225 139 164 179 172 182 183 168 153 158 180 183 174 159 163 171 179 187 146 197 146 94 193 148 124 261 190 34 78 145 202 223 243 241 246 229 208 218 177 212 247 251 29 309 244 113 110 115 111 95 77 76 64 50 40 34 33 33
234 257 260 252 249 235 214 215 209 204 214 217 223 228 233 241 249 272 279 284 287 300 340 354 47 84 176 152 206 261 138 134 170 162 160 173 174 168 164 163 177 195 178 146 158 160 171 184 143 168 112 103 177 139 353 277 31 52 26 252 245 262 260 218 234 214 187 205 190 225 258 127 78 251 231 111 122 139 127 107 75 76 66 49 37 33 30 33
237 251 254 253 245 234 220 218 205 201 217 226 233 228 224 232 237 258 264 272 290 307 336 34 124 154 155 169 231 244 147 152 160 148 156 166 169 169 171 174 173 188 174 149 167 160 130 154 140 143 164 134 155 136 277 301 71 17 308 270 244 275 266 207 220 209 186 203 194 221 254 114 133 233 223 119 143 165 143 118 95 89 81 64 44 40 33 32
241 247 249 249 242 235 225 220 209 209 224 235 240 231 218 223 229 252 261 280 300 311 322 277 187 175 149 210 241 215 168 164 156 156 162 163 167 168 170 177 166 170 175 158 170 163 134 152 149 123 51 160 163 137 149 133 22 329 324 298 287 292 277 196 124 187 202 185 176 208 237 194 193 200 110 130 151 167 161 135 111 100 84 79 56 53 46 32
235 246 252 251 244 233 225 219 217 221 229 246 252 229 210 217 228 249 273 301 315 331 325 248 189 167 194 257 211 199 198 181 160 159 163 159 158 157 158 162 152 149 161 163 166 158 144 157 151 89 78 177 158 109 138 129 272 227 81 317 304 292 272 103 68 234 208 149 166 214 254 219 180 146 115 146 167 177 181 158 123 112 88 81 63 59 56 40
225 244 252 254 249 236 229 220 218 225 234 258 262 223 208 216 223 245 284 318 326 300 260 191 178 165 214 258 178 206 206 194 183 170 165 162 149 136 133 137 139 139 134 146 158 152 147 148 126 104 86 347 108 138 148 126 274 282 254 222 280 285 217 112 67 306 229 142 180 220 254 249 153 134 131 166 184 197 209 174 133 116 91 78 67 65 60 53
220 236 247 256 253 240 234 224 217 219 236 261 258 219 210 214 229 277 227 222 104 166 143 152 170 161 255 254 215 214 197 193 192 185 179 168 154 131 124 127 121 119 117 125 137 135 136 138 128 118 96 12 158 168 198 205 111 3 268 227 181 243 235 122 83 354 308 117 183 219 249 267 157 139 124 163 192 207 231 191 131 108 95 76 71 69 64 75
228 234 242 250 252 248 235 219 207 207 245 264 249 215 216 221 248 157 142 132 147 146 133 155 152 146 275 242 158 190 192 194 192 193 185 170 162 140 128 120 108 107 109 109 115 115 111 112 100 29 109 163 185 189 234 253 232 171 246 256 220 221 266 292 114 55 345 90 185 223 258 286 144 139 117 144 199 208 232 209 138 120 102 89 94 84 96 116
232 232 238 240 246 250 224 195 183 206 259 261 245 231 227 220 185 160 136 132 136 116 115 138 124 137 254 178 181 213 181 186 186 184 180 170 163 147 133 113 98 107 108 106 112 109 71 60 86 250 129 165 183 185 225 246 243 201 202 252 253 229 248 261 149 103 32 233 219 219 248 258 146 140 135 141 192 212 226 213 155 146 150 144 157 159 161 163
229 227 237 241 245 246 213 184 172 217 256 253 270 161 146 141 148 155 155 141 115 96 103 124 125 224 236 171 177 163 129 157 164 164 171 162 156 151 136 116 121 128 121 112 116 116 33 44 224 212 151 187 183 184 214 239 258 231 204 240 257 228 230 246 238 108 94 235 243 223 240 251 195 160 170 163 184 216 223 199 162 168 175 177 185 187 175 175
226 222 229 236 242 236 199 180 175 215 246 247 127 122 110 100 130 165 166 149 143 170 175 165 174 235 250 158 120 106 115 137 146 152 153 146 150 145 121 117 127 138 145 160 171 139 156 138 158 217 203 199 192 199 219 244 7 284 234 258 268 257 243 227 206 24 32 260 252 241 251 259 235 192 182 183 191 214 215 178 172 184 182 190 192 187 183 176
224 218 220 229 238 232 195 180 177 209 244 237 157 141 129 145 193 200 178 193 223 225 76 169 188 207 45 114 126 127 122 125 131 154 155 151 147 131 102 108 117 141 169 177 155 134 226 196 202 225 215 195 198 206 220 46 64 90 267 268 265 267 267 170 118 51 26 263 255 248 261 266 262 242 191 173 192 211 212 195 190 192 186 196 192 180 182 166
221 210 219 229 231 227 199 181 176 204 239 227 185 187 220 209 217 223 183 226 234 233 243 195 194 244 168 131 154 152 132 114 92 156 162 159 155 152 147 157 162 175 183 110 107 119 212 218 227 229 191 176 207 209 199 138 153 221 250 259 264 259 265 244 122 112 119 251 255 242 261 261 261 259 195 161 200 215 213 206 197 194 191 193 187 181 178 156
218 205 217 224 218 220 200 178 180 206 236 227 208 235 274 263 231 47 8 258 240 225 231 208 207 241 188 145 170 169 183 164 142 177 172 161 171 189 167 168 191 181 138 131 142 162 205 230 235 200 100 118 188 198 201 219 224 228 235 254 263 258 278 273 146 142 181 237 256 235 265 264 261 255 205 176 211 214 207 218 205 197 198 195 186 180 176 171
212 205 215 214 210 212 187 175 186 207 224 220 212 222 253 269 152 80 293 274 278 210 205 193 210 215 183 179 184 177 209 196 171 193 181 168 177 192 162 177 196 151 148 186 193 194 204 240 239 136 132 156 149 178 194 212 231 225 219 237 247 220 258 258 158 111 183 229 294 311 283 274 265 247 209 173 202 129 85 227 237 223 219 201 184 183 181 178
206 205 207 201 204 196 173 178 197 215 222 225 230 221 203 133 149 122 292 272 271 214 201 202 212 211 189 180 179 181 205 211 183 187 180 177 160 146 180 180 165 156 191 202 205 218 215 154 120 148 168 184 167 168 186 205 228 221 216 227 243 226 223 244 311 55 227 208 246 286 285 277 259 238 217 134 132 192 169 195 216 217 216 204 183 194 195 178
200 199 196 194 198 179 167 186 207 218 219 228 239 222 198 174 141 150 273 285 252 225 247 207 201 213 186 157 166 172 185 205 211 174 176 184 159 140 176 155 171 203 199 189 205 237 234 117 125 149 172 190 185 186 192 205 228 229 215 219 238 245 235 236 239 334 266 238 187 248 270 268 243 239 224 129 177 214 193 201 213 203 194 202 201 195 189 173
197 195 192 195 191 170 168 194 211 215 217 231 240 208 191 188 140 139 204 293 255 198 133 186 184 186 168 151 156 139 124 216 181 117 167 188 180 140 171 144 192 229 178 154 204 251 234 131 133 154 173 184 198 216 196 192 227 250 214 209 228 241 239 223 204 215 258 272 79 229 258 264 305 279 191 136 222 220 202 211 210 201 196 200 204 194 182 175
197 193 192 196 187 172 176 194 193 193 202 241 241 202 194 186 156 156 211 277 259 169 134 187 192 168 157 157 160 144 178 196 104 109 161 183 177 105 212 178 160 214 141 134 220 230 157 153 161 172 174 181 205 223 182 180 217 241 85 189 208 214 218 211 207 217 249 321 118 189 242 274 280 280 121 134 252 235 215 215 204 199 200 200 202 192 181 177
199 194 194 201 192 180 182 176 170 183 205 240 238 200 194 182 174 172 217 257 268 113 117 158 99 102 122 133 146 133 296 76 125 163 76 96 163 113 228 199 174 163 154 182 217 216 142 176 189 182 183 200 211 205 159 179 211 265 73 120 160 182 204 193 202 223 247 315 245 191 163 254 259 252 136 117 268 259 229 208 197 192 195 199 198 186 177 174
200 196 197 207 200 187 189 183 169 195 221 233 235 192 179 175 183 126 185 242 239 97 84 119 127 69 101 135 114 75 59 24 75 157 89 109 118 60 222 205 152 148 153 232 231 347 63 205 210 188 198 208 178 49 155 187 200 134 119 101 94 86 93 137 204 213 166 248 248 195 170 225 267 238 216 181 249 263 239 185 187 184 187 194 188 178 175 170
199 197 200 206 199 190 193 194 183 193 219 233 215 173 163 167 179 156 215 232 183 104 72 126 156 141 145 152 165 158 112 34 75 111 114 134 85 36 353 101 96 138 149 292 269 353 76 51 303 214 215 176 109 61 29 181 128 138 138 110 100 96 93 113 178 165 225 243 242 199 184 209 260 229 218 221 218 264 351 126 173 174 180 184 176 173 173 170
200 198 201 204 197 189 189 194 192 185 198 209 173 156 156 150 124 195 213 242 13 147 137 148 154 155 163 163 169 171 132 63 146 151 145 147 136 119 150 154 127 138 191 246 238 182 145 192 205 190 111 103 113 91 47 42 111 156 158 142 138 134 146 181 157 167 242 240 186 165 182 206 236 223 222 239 164 105 21 60 172 177 178 173 169 171 172 173
204 201 203 206 198 189 189 194 190 184 189 176 160 153 158 143 214 225 205 85 168 189 155 153 174 179 177 168 130 148 144 136 165 169 157 159 175 175 186 189 164 166 218 217 204 149 212 210 163 100 240 182 149 120 86 87 194 205 172 167 185 191 180 214 201 195 241 238 95 84 157 206 238 241 261 270 146 124 126 58 138 178 174 167 168 172 170 171
209 205 207 207 197 190 192 195 187 187 189 168 159 168 157 177 219 224 198 167 195 167 105 112 138 165 168 160 150 150 131 139 166 174 150 157 188 195 216 235 187 210 232 187 186 182 211 216 156 169 208 202 185 172 166 172 188 195 181 181 194 186 196 221 207 226 258 234 83 112 177 225 252 239 254 265 80 80 102 92 56 162 168 167 166 169 170 171
213 209 210 208 199 193 192 190 185 187 181 161 159 168 164 210 227 208 196 200 182 45 60 106 111 128 163 168 165 161 147 161 166 164 159 169 193 204 213 225 216 245 59 156 190 192 218 258 178 179 164 173 192 203 170 144 166 194 190 199 209 193 208 222 209 240 269 97 109 154 196 214 199 155 264 294 78 86 111 115 92 84 151 155 155 164 173 177
214 211 211 206 200 196 190 184 183 182 171 150 164 177 183 219 227 202 193 178 139 80 67 104 121 137 183 196 13 192 208 209 165 160 178 181 196 202 197 201 199 188 150 182 199 179 225 272 162 157 115 169 185 200 93 124 161 194 124 221 232 219 197 215 270 19 30 10 183 191 235 242 215 115 112 186 160 155 135 122 137 144 147 153 162 174 181 185
209 209 209 202 198 195 188 184 181 176 165 146 179 195 207 223 211 176 187 164 150 140 124 127 141 157 192 182 198 213 240 137 162 174 198 198 227 212 189 197 191 190 189 183 180 171 211 280 103 77 5 177 185 162 125 158 174 152 178 202 206 349 72 151 209 86 70 271 228 175 228 251 245 240 160 164 188 164 153 158 158 153 157 169 180 184 188 189
201 203 206 201 196 190 186 188 180 170 162 162 195 204 219 228 190 155 174 155 138 138 144 182 187 176 188 187 196 195 184 150 167 189 186 177 232 199 185 217 192 196 210 205 213 205 200 250 143 140 176 144 353 32 104 352 93 139 191 191 125 24 327 219 242 177 189 252 252 184 217 210 190 213 151 164 194 187 179 169 159 165 174 186 194 191 190 186
193 193 203 206 196 185 185 187 177 166 160 180 209 219 222 221 193 178 169 125 137 156 180 212 195 178 187 189 186 176 178 177 167 186 186 179 229 179 170 198 192 197 211 208 320 225 206 234 169 122 171 104 37 212 159 42 324 117 215 171 123 223 210 178 224 232 204 238 256 199 211 215 204 194 167 183 198 193 181 162 169 190 191 195 197 191 186 181
189 183 210 207 194 185 184 181 172 166 177 188 209 224 221 216 196 183 176 149 149 171 198 212 200 195 194 180 160 161 181 186 163 175 197 189 211 173 170 187 193 197 197 177 178 189 181 236 216 94 35 116 137 209 193 180 172 15 221 180 217 266 216 176 196 222 213 230 247 213 202 212 208 188 177 187 195 185 168 166 193 202 197 195 192 184 183 186
181 183 218 194 187 183 178 173 166 177 206 199 211 218 206 204 193 181 190 189 181 187 207 210 199 194 190 174 159 163 187 196 173 183 207 185 186 191 187 190 178 185 184 173 192 160 142 228 224 115 86 173 182 206 203 186 173 173 186 184 187 197 249 254 230 197 224 233 235 248 253 210 173 183 181 183 187 174 164 181 203 202 194 189 182 180 183 189
172 214 200 175 177 173 168 167 171 188 205 211 218 223 206 183 188 192 208 212 217 236 223 216 207 197 177 174 180 160 175 196 188 196 214 194 202 218 194 191 165 139 143 154 214 211 176 201 193 148 183 203 202 222 244 214 189 187 192 190 188 179 161 204 219 179 186 251 230 256 272 218 134 286 198 157 159 160 166 192 203 190 182 177 176 184 188 191
186 232 165 163 169 165 160 179 191 181 210 217 216 222 188 131 186 194 195 214 228 235 222 228 220 209 184 175 177 159 166 186 191 200 221 208 212 216 186 183 163 145 147 164 201 193 129 122 189 174 203 208 201 28 336 294 298 265 238 208 194 190 182 200 217 170 160 227 259 340 287 295 108 277 359 71 50 19 8 225 217 187 169 174 182 184 189 195
235 232 154 160 166 162 161 200 185 183 219 220 224 227 184 180 201 195 193 202 213 219 217 224 220 217 210 169 159 171 177 190 193 196 213 217 215 213 167 166 158 156 162 164 172 154 98 169 200 194 205 119 70 128 166 10 309 245 243 217 203 209 198 206 228 149 181 198 159 196 245 229 167 199 37 20 345 309 261 228 215 198 164 176 185 183 185 189
229 255 154 166 167 164 170 197 183 197 214 214 224 225 216 219 204 197 199 199 201 206 214 222 216 217 218 166 174 191 185 198 206 197 202 211 209 177 152 168 165 167 186 185 161 163 164 181 183 183 202 199 191 199 203 196 199 224 224 191 202 207 169 128 90 140 229 201 169 203 238 188 159 121 38 333 303 263 245 223 206 199 183 180 183 183 185 182
185 199 320 180 169 166 183 196 186 196 205 209 217 217 222 228 206 204 203 197 203 205 209 221 204 198 204 183 204 205 193 208 220 203 205 210 196 21 183 186 181 179 196 158 146 161 175 177 176 187 204 207 205 209 211 189 174 215 205 179 200 199 179 173 168 198 227 179 167 210 231 160 120 342 272 239 243 243 233 212 206 208 197 184 177 181 183 183
190 194 247 215 187 182 193 193 190 193 197 204 212 214 218 221 212 207 202 201 208 206 210 219 164 180 200 200 209 212 207 220 228 190 201 199 177 279 214 198 197 186 162 141 155 160 159 187 193 203 213 214 216 224 160 126 153 198 194 185 199 200 191 189 198 210 196 142 197 219 210 193 204 205 221 216 208 224 218 190 202 211 201 190 179 181 185 187
204 211 177 188 227 213 197 190 191 196 198 198 199 206 213 217 217 200 200 209 205 198 211 223 177 196 205 202 211 216 204 212 217 198 199 184 143 27 114 169 202 180 144 163 176 160 115 215 210 214 224 225 231 269 171 158 184 200 190 189 199 196 191 196 211 205 139 153 234 196 156 215 213 181 198 209 200 215 209 187 197 197 189 184 175 180 187 191
207 213 184 162 183 227 219 198 190 197 202 197 199 210 210 213 215 206 199 207 197 188 200 222 212 212 210 203 207 208 191 200 218 212 195 162 146 135 102 150 212 175 126 154 217 178 176 224 217 214 229 232 170 129 213 190 198 201 192 195 194 188 190 198 213 206 157 204 241 157 159 219 216 167 190 200 193 200 190 181 184 166 164 169 169 180 190 194
189 166 194 49 48 240 291 241 196 200 201 197 204 216 212 213 217 212 189 168 194 195 197 212 218 215 213 206 198 198 192 196 216 214 185 165 169 158 148 176 201 183 139 158 208 199 191 224 200 191 228 233 201 175 201 185 193 208 205 205 198 193 194 196 208 208 196 223 241 154 182 229 208 157 188 187 171 173 148 144 153 153 164 169 175 189 195 197
190 190 169 115 51 268 332 338 210 205 204 201 206 212 214 218 219 216 192 176 198 199 197 215 220 210 207 205 199 208 208 203 214 212 174 168 183 181 188 187 157 160 174 177 186 188 201 206 138 135 224 231 201 175 181 188 200 217 228 223 208 190 186 196 209 207 208 231 243 232 248 250 191 153 171 142 124 129 137 159 168 170 173 172 181 194 196 199
234 323 120 130 172 239 233 277 245 222 212 205 208 210 213 219 220 218 211 201 208 203 198 215 222 210 200 203 205 217 219 214 220 211 175 180 193 189 192 179 148 155 174 185 173 169 196 199 107 148 219 228 192 179 187 175 204 257 249 234 210 173 164 192 209 203 203 218 225 232 250 249 190 145 139 136 153 162 165 171 175 182 179 175 184 191 193 199
136 360 12 138 175 218 206 194 234 235 223 213 217 216 216 225 222 214 216 219 215 216 211 219 224 215 201 208 213 222 227 222 227 206 171 180 181 161 165 164 160 163 168 175 174 165 183 188 162 181 210 231 193 178 172 127 137 251 243 221 199 185 181 191 210 213 206 202 204 219 235 234 166 149 157 166 181 188 185 180 179 181 178 181 187 187 190 196